星链-6308 (STARLINK-6308 )

导读

STARLINK-6308是美国于北京时间2023年5月14日发射的星链卫星,属于SpaceX星链星座的组成部分。星链系统旨在构建全球卫星互联网,该卫星入轨后为提供全球覆盖的低宽带互联网服务,助力星链网络的全球部署,进一步扩充星链低轨星座卫星规模。

基本信息
目录编号:
56534
目录名称:
STARLINK-6308
国际标识:
2023-065AH
轨道中心:
EARTH
卫星名称:
星链-6308
卫星全名:
星链-6308 (STARLINK-6308 )
卫星状态:
在轨 (已飞行1217 天)
发射日期:
2023-05-14 UTC
国别 :
美国 (US)
星等 :
--
该卫星已列入 空间交会检测服务 Space Conjunction Data Service (SCDS) ,当前飞行风险评估等级: 无高风险
轨道信息
数据来源 国际轨道数据 AOE轨道数据
星历时间 2026-09-12T07:25:32+0800
17小时前
查看轨道信息
2026-09-06T21:00:00+0800
6天前
查看轨道信息
半长轴 6861.202km 6861.192km
偏心率 0.0001255 0.0001693
轨道倾角 43.004° 43.003°
近地点辐角 286.705° 278.220°
升交点赤经 226.241° 256.937°
平近点角 73.367° 41.499°
近地点 482.203km 481.893km
远地点 483.927km 484.217km
周期 94.267分钟 94.267分钟
每日圈数 15.275749 15.275783
详细信息
固有亮度:
5
最大亮度:
2.5
卫星平台:
Starlink v1.5
覆盖范围:
全球
运营商:
太空探索技术公司
运营商所在国:
美国
制造商(研发单位):
太空探索技术公司
制造商所在国:
美国
使用方式:
暂无
卫星简介
星链(Starlink)计划是由太空探索技术公司(SpaceX)提出的一个巨型低轨卫星互联网星座项目,计划在2019年至2024年间在太空搭建由约1.2万颗卫星组成的“星链”网络,其中1584颗将部署在地球上空550千米处的近地轨道,并从2020年开始工作。该卫星仍在工作。
2D轨道图
3D轨道图
轨道高度分析图
轨道倾角分析图
轨道综合分析图
查看轨道综合分析图
与全量物体交会距离演化趋势
与全量物体交会风险概率演化趋势